Regional Weather Roundup
Issued by NWS

Home | Current Version | Previous Version | Graphics & Text | Print | Product List | Glossary On
Versions: 1 2 3 4 5 6 7 8 9 10 11 12 13 14 15 16 17 18 19 20 21 22 23 24 25 26 27 28 29 30 31 32 33 34 35 36 37 38 39 40 41 42 43 44 45 46 47 48 49 50
000
ASUS43 KFSD 181902
RWRSD

WEATHER ROUNDUP FOR SOUTH DAKOTA
NATIONAL WEATHER SERVICE SIOUX FALLS SD
200 PM CDT FRI AUG 18 2017

NOTE: "FAIR" INDICATES FEW OR NO CLOUDS BELOW 12,000 FEET WITH NO
SIGNIFICANT WEATHER AND/OR OBSTRUCTIONS TO VISIBILITY.


SDZ001>005-009-010-012>017-182000-
NORTHWEST AND NORTH CENTRAL SOUTH DAKOTA

CITY           SKY/WX    TMP DP  RH WIND       PRES   REMARKS
BUFFALO          N/A     83  46  27 W7        29.96F
FAITH            N/A     83  46  27 N9        30.00F
MOBRIDGE       SUNNY     78  59  51 N9        29.94S
$$

SDZ012>016-024>037-041>051-057-063-072>074-182000-
SOUTHWEST AND SOUTH CENTRAL SOUTH DAKOTA

CITY           SKY/WX    TMP DP  RH WIND       PRES   REMARKS
RAPID CTY ARPT SUNNY     85  42  22 N14G25    30.03F
PIERRE         SUNNY     81  53  37 N13G20    29.95F
CUSTER         MOSUNNY   75  37  25 W14       30.17F HAZE
ELLSWORTH AFB  SUNNY     82  44  25 N8G20     30.03F
PHILIP         SUNNY     84  47  27 NW10      29.98F
PINE RIDGE     SUNNY     86  47  25 VRB6      30.04F
SPEARFISH      LGT RAIN  81  39  22 NE6G13    30.07F
WINNER         FAIR      83  58  42 N13       29.96F
$$

SDZ004>011-016>023-039-040-182000-
NORTHEAST SOUTH DAKOTA

CITY           SKY/WX    TMP DP  RH WIND       PRES   REMARKS
ABERDEEN       MOSUNNY   72  62  71 N18G25    29.90R
WATERTOWN      MOSUNNY   75  61  61 S10       29.88F
BROOKINGS      MOSUNNY   76  62  62 S13       29.91S
SISSETON         N/A     67  64  90 N7        29.88S
$$

SDZ017-020-022-023-036>040-048>070-182000-
SOUTHEAST SOUTH DAKOTA

CITY           SKY/WX    TMP DP  RH WIND       PRES   REMARKS
SIOUX FALLS    MOSUNNY   78  65  63 S12       29.90F
HURON          SUNNY     79  62  56 NW14G20   29.90S
CHAMBERLAIN    SUNNY     81  61  50 NW12      29.94F
MITCHELL       MOSUNNY   79  65  62 VRB6      29.90F
$$

ABBREVIATIONS USED IN REMARKS
   TC - TEMPERATURE IN CELSIUS
  WCI - WIND CHILL INDEX
   HX - HEAT INDEX
  VSB - VISIBILITY





USA.gov is the U.S. government's official web portal to all federal, state and local government web resources and services.